TimeEST,TemperatureF,Dew PointF,Humidity,Sea Level PressureIn,VisibilityMPH,Wind Direction,Wind SpeedMPH,Gust SpeedMPH,PrecipitationIn,Events,Conditions,WindDirDegrees,DateUTC
12:15 AM,41.0,32.0,70,30.05,10.0,WNW,3.5,-,N/A,,Clear,300,2011-11-11 05:15:00
12:35 AM,41.0,32.0,70,30.05,10.0,Calm,Calm,-,N/A,,Clear,0,2011-11-11 05:35:00
1:15 AM,39.2,32.0,75,30.06,10.0,Calm,Calm,-,N/A,,Clear,0,2011-11-11 06:15:00
1:35 AM,37.4,32.0,81,30.07,10.0,West,5.8,-,N/A,,Clear,270,2011-11-11 06:35:00
1:55 AM,39.2,32.0,75,30.07,10.0,West,4.6,-,N/A,,Clear,280,2011-11-11 06:55:00
2:35 AM,37.4,32.0,81,30.08,10.0,WNW,5.8,-,N/A,,Clear,290,2011-11-11 07:35:00
2:55 AM,37.4,32.0,81,30.09,10.0,WNW,3.5,-,N/A,,Clear,300,2011-11-11 07:55:00
3:15 AM,37.4,30.2,75,30.09,10.0,NW,4.6,-,N/A,,Clear,310,2011-11-11 08:15:00
3:55 AM,35.6,30.2,81,30.09,10.0,NW,3.5,-,N/A,,Clear,310,2011-11-11 08:55:00
4:15 AM,35.6,30.2,81,30.10,10.0,NW,4.6,-,N/A,,Clear,310,2011-11-11 09:15:00
4:35 AM,35.6,30.2,81,30.10,10.0,NW,3.5,-,N/A,,Clear,310,2011-11-11 09:35:00
4:55 AM,33.8,30.2,87,30.12,10.0,NW,4.6,-,N/A,,Clear,310,2011-11-11 09:55:00
5:15 AM,35.6,28.4,75,30.12,10.0,NW,5.8,-,N/A,,Clear,310,2011-11-11 10:15:00
5:55 AM,37.4,28.4,70,30.13,10.0,NW,3.5,-,N/A,,Clear,320,2011-11-11 10:55:00
6:15 AM,35.6,28.4,75,30.13,10.0,WNW,3.5,-,N/A,,Clear,300,2011-11-11 11:15:00
7:15 AM,32.0,28.4,87,30.17,10.0,WSW,3.5,-,N/A,,Clear,250,2011-11-11 12:15:00
7:35 AM,33.8,30.2,87,30.18,10.0,West,3.5,-,N/A,,Clear,270,2011-11-11 12:35:00
7:55 AM,37.4,30.2,75,30.18,10.0,Calm,Calm,-,N/A,,Clear,0,2011-11-11 12:55:00
8:15 AM,37.4,30.2,75,30.20,10.0,West,4.6,-,N/A,,Clear,280,2011-11-11 13:15:00
8:55 AM,42.8,30.2,61,30.20,10.0,WNW,3.5,-,N/A,,Clear,300,2011-11-11 13:55:00
9:15 AM,44.6,30.2,57,30.21,10.0,West,3.5,-,N/A,,Clear,260,2011-11-11 14:15:00
9:35 AM,46.4,28.4,50,30.22,10.0,WNW,5.8,-,N/A,,Clear,290,2011-11-11 14:35:00
9:55 AM,46.4,28.4,50,30.22,10.0,WSW,5.8,-,N/A,,Clear,250,2011-11-11 14:55:00
10:15 AM,48.2,26.6,43,30.22,10.0,West,4.6,-,N/A,,Clear,270,2011-11-11 15:15:00
10:35 AM,50.0,26.6,40,30.22,10.0,WNW,4.6,-,N/A,,Clear,290,2011-11-11 15:35:00
10:55 AM,50.0,26.6,40,30.22,10.0,WNW,10.4,-,N/A,,Clear,290,2011-11-11 15:55:00
11:15 AM,51.8,26.6,38,30.22,10.0,WNW,8.1,-,N/A,,Clear,300,2011-11-11 16:15:00
11:35 AM,51.8,26.6,38,30.22,10.0,West,8.1,-,N/A,,Clear,270,2011-11-11 16:35:00
11:55 AM,51.8,26.6,38,30.20,10.0,WSW,11.5,-,N/A,,Clear,250,2011-11-11 16:55:00
12:15 PM,53.6,26.6,35,30.19,10.0,West,6.9,-,N/A,,Clear,270,2011-11-11 17:15:00
12:35 PM,53.6,26.6,35,30.18,10.0,WSW,3.5,-,N/A,,Clear,240,2011-11-11 17:35:00
12:55 PM,55.4,26.6,33,30.18,10.0,WNW,9.2,-,N/A,,Clear,290,2011-11-11 17:55:00
1:15 PM,55.4,26.6,33,30.18,10.0,WSW,10.4,-,N/A,,Clear,240,2011-11-11 18:15:00
1:35 PM,55.4,24.8,31,30.17,10.0,West,6.9,-,N/A,,Clear,280,2011-11-11 18:35:00
1:55 PM,55.4,26.6,33,30.17,10.0,SW,6.9,-,N/A,,Clear,230,2011-11-11 18:55:00
2:15 PM,55.4,26.6,33,30.17,10.0,West,8.1,-,N/A,,Clear,270,2011-11-11 19:15:00
2:35 PM,55.4,26.6,33,30.16,10.0,WNW,4.6,-,N/A,,Clear,290,2011-11-11 19:35:00
2:55 PM,55.4,24.8,31,30.16,10.0,NNW,3.5,-,N/A,,Clear,330,2011-11-11 19:55:00
3:15 PM,55.4,26.6,33,30.17,10.0,West,5.8,-,N/A,,Clear,260,2011-11-11 20:15:00
3:35 PM,55.4,26.6,33,30.17,10.0,WSW,6.9,-,N/A,,Clear,240,2011-11-11 20:35:00
3:55 PM,55.4,26.6,33,30.18,10.0,WSW,6.9,-,N/A,,Clear,240,2011-11-11 20:55:00
4:15 PM,55.4,28.4,36,30.18,10.0,West,6.9,-,N/A,,Clear,280,2011-11-11 21:15:00
4:35 PM,55.4,26.6,33,30.18,10.0,WNW,6.9,-,N/A,,Clear,290,2011-11-11 21:35:00
5:15 PM,51.8,28.4,41,30.19,10.0,West,5.8,-,N/A,,Clear,270,2011-11-11 22:15:00
5:55 PM,46.4,28.4,50,30.20,10.0,West,3.5,-,N/A,,Clear,280,2011-11-11 22:55:00
6:15 PM,46.4,30.2,53,30.21,10.0,Calm,Calm,-,N/A,,Clear,0,2011-11-11 23:15:00
6:35 PM,44.6,30.2,57,30.22,10.0,South,3.5,-,N/A,,Clear,180,2011-11-11 23:35:00
6:55 PM,42.8,30.2,61,30.22,10.0,West,5.8,-,N/A,,Clear,280,2011-11-11 23:55:00
7:15 PM,42.8,30.2,61,30.22,10.0,SSW,3.5,-,N/A,,Clear,210,2011-11-12 00:15:00
7:35 PM,42.8,30.2,61,30.23,10.0,Calm,Calm,-,N/A,,Clear,0,2011-11-12 00:35:00
7:55 PM,44.6,28.4,53,30.22,10.0,Calm,Calm,-,N/A,,Clear,0,2011-11-12 00:55:00
8:15 PM,41.0,32.0,70,30.23,10.0,Calm,Calm,-,N/A,,Clear,0,2011-11-12 01:15:00
8:35 PM,37.4,30.2,75,30.23,10.0,Calm,Calm,-,N/A,,Clear,0,2011-11-12 01:35:00
8:55 PM,37.4,32.0,81,30.24,10.0,Calm,Calm,-,N/A,,Clear,0,2011-11-12 01:55:00
9:15 PM,35.6,30.2,81,30.25,10.0,Calm,Calm,-,N/A,,Clear,0,2011-11-12 02:15:00
9:35 PM,35.6,32.0,87,30.24,10.0,Calm,Calm,-,N/A,,Clear,0,2011-11-12 02:35:00
9:55 PM,35.6,32.0,87,30.25,10.0,Calm,Calm,-,N/A,,Clear,0,2011-11-12 02:55:00
10:15 PM,35.6,32.0,87,30.25,10.0,Calm,Calm,-,N/A,,Clear,0,2011-11-12 03:15:00
10:35 PM,33.8,30.2,87,30.25,10.0,Calm,Calm,-,N/A,,Clear,0,2011-11-12 03:35:00
10:55 PM,33.8,30.2,87,30.25,10.0,Calm,Calm,-,N/A,,Clear,0,2011-11-12 03:55:00
11:15 PM,33.8,30.2,87,30.26,10.0,Calm,Calm,-,N/A,,Clear,0,2011-11-12 04:15:00
11:35 PM,33.8,30.2,87,30.26,10.0,Calm,Calm,-,N/A,,Clear,0,2011-11-12 04:35:00
11:55 PM,33.8,30.2,87,30.26,10.0,Calm,Calm,-,N/A,,Clear,0,2011-11-12 04:55:00